Location: Albany
(35.0170°S, 117.8920°E)
Time: 02:38:02
(UTC+08:00)

Vanguard 1 - Pass Details

Date: 01 February 2021
Orbit: 649 x 3833 km, 34.2° (Epoch: 25 February)

Event Time Altitude Azimuth Distance (km) Brightness Sun altitude
Rises 02:04:04 0° 268° (W) 4,132 - -32.5°
Reaches altitude 10° 02:07:24 10° 269° (W) 2,796 - -32.1°
Maximum altitude 02:13:32 82° 356° (N) 757 - -31.5°
Exits shadow 02:17:04 17° 81° (E) 1,693 11.5 -31.1°
Drops below altitude 10° 02:18:00 10° 82° (E) 2,069 12.0 -31.0°
Sets 02:20:09 0° 83° (E) 2,969 12.9 -30.8°
